[[{"header":{"parameterUnit":"m.s-1","parameterCategory":1,"la1":30.2991,"la2":30.254,"lo1":-89.0895,"lo2":-89.0444,"dy":0.0017,"dx":0.0017,"nx":28,"ny":28,"refTime":"2025-08-07T09:00:00:Z","depth":0,"parameterNumber":2,"parameterNumberName":"U-component_of_WINDS"},"data":[0,0,0,0,0,0,0,0,0,0,0,0,0,0,0,0,0,0,0,0,0,0,0,0,0,0,0,0,0,0,0,0,0,0,0,0,0,0,0,0,0,0,0,0,0,0,0,0,0,0,0,0,0,0,0,0,0,0,-2.1737,-2.1736,0,-2.1719,-2.1719,-2.1719,-2.1597,-2.1594,-2.1591,-2.1589,-2.1574,-2.1577,-2.1579,0,0,0,0,0,0,0,0,0,0,0,0,0,-2.1668,-2.167,-2.1737,-2.1736,-2.1736,-2.1719,-2.1719,-2.1719,-2.1598,-2.1594,-2.1591,-2.1587,-2.1574,-2.1576,-2.1579,0,0,0,0,0,0,0,0,0,0,0,0,0,-2.1679,-2.1671,-2.1737,-2.1674,-2.1668,-2.1719,-2.1719,-2.1719,-2.1599,-2.1594,-2.159,-2.1586,-2.1573,-2.1576,-2.158,-2.1691,0,0,-2.1591,-2.1592,0,0,0,0,0,0,0,0,-2.1679,-2.1682,-2.1683,-2.1678,-2.1672,-2.1656,-2.1689,-2.1709,-2.16,-2.1625,-2.1589,-2.1583,-2.1605,-2.1606,-2.1612,-2.169,-2.169,-2.1591,-2.1593,-2.1595,-2.1596,0,0,0,0,0,0,0,-2.1678,-2.1682,-2.173,-2.1683,-2.1676,-2.1647,-2.1644,-2.1693,-2.1641,-2.1623,-2.1614,-2.1613,-2.1601,-2.1609,-2.1611,-2.1689,-2.1591,-2.1594,-2.1596,-2.1598,-2.1858,-2.1862,0,0,0,0,0,0,-2.1686,-2.1682,-2.173,-2.1729,-2.1664,-2.1652,-2.1648,-2.1665,-2.164,-2.1631,-2.1617,-2.1607,-2.1605,-2.1607,-2.161,-2.1739,-2.1595,-2.1598,-2.16,-2.1853,-2.1859,-2.1864,0,0,0,0,0,0,-2.1685,-2.1691,-2.1731,-2.1703,-2.1706,-2.1658,-2.1678,-2.1667,-2.1675,-2.1635,-2.1626,-2.1635,-2.1602,-2.1605,-2.1671,-2.1737,-2.16,-2.1603,-2.1847,-2.1855,-2.1861,-2.1998,0,0,0,0,0,0,-2.1684,-2.1692,-2.1733,-2.1705,-2.1708,-2.1792,-2.1682,-2.167,-2.1681,-2.1669,-2.1649,-2.1642,-2.1599,-2.1667,-2.1675,-2.1739,-2.1606,-2.1841,-2.1851,-2.1859,-2.1987,-2.2009,-2.2027,0,0,0,0,0,-2.1681,-2.1773,-2.1736,-2.1742,-2.1758,-2.1796,-2.1798,-2.1745,-2.1687,-2.1729,-2.1703,-2.1642,-2.1728,-2.1675,-2.1683,-2.1749,-2.1837,-2.1848,-2.1858,-2.1978,-2.2004,-2.2026,0,0,0,0,0,0,-2.1811,-2.1768,-2.1726,-2.1811,-2.1808,-2.1776,-2.1826,-2.1775,-2.1789,-2.1777,-2.1712,-2.1709,-2.1785,-2.1773,-2.1715,-2.1855,-2.1772,-2.1785,-2.186,-2.1885,-2.1904,-2.1906,-2.1609,0,0,0,0,0,-2.185,-2.1883,-2.1843,-2.1922,-2.1923,-2.1875,-2.189,-2.1849,-2.1844,-2.1842,-2.1821,-2.1819,-2.1845,-2.1864,-2.1886,-2.1984,-2.1979,-2.2034,-2.2054,-2.207,-2.2083,-2.2134,-2.2158,-2.1899,-2.1899,-2.1899,0,0,-2.193,-2.191,-2.1935,-2.1948,-2.1941,-2.1977,-2.1875,-2.1918,-2.1945,-2.1849,-2.191,-2.1895,-2.1888,-2.1971,-2.2006,-2.1964,-2.2153,-2.2084,-2.2098,-2.2101,-2.2147,-2.2172,-2.2194,-2.1906,-2.1905,-2.1904,0,0,-2.2094,-2.2082,-2.2146,-2.2141,-2.2131,-2.2098,-2.2114,-2.2089,-2.2075,-2.2134,-2.2063,-2.2095,-2.2141,-2.2139,-2.2145,-2.2308,-2.2253,-2.2317,-2.2421,-2.2472,-2.2492,-2.251,-2.2569,-2.2591,-2.2329,-2.2329,-2.2329,0,-2.2195,-2.2246,-2.2186,-2.2234,-2.2242,-2.2155,-2.222,-2.2218,-2.2217,-2.2225,-2.2176,-2.2233,-2.2222,-2.2303,-2.2343,-2.235,-2.2367,-2.2319,-2.2494,-2.2511,-2.2527,-2.2582,-2.2605,-2.2337,-2.2336,-2.2335,-2.2335,0,-2.2371,-2.2408,-2.2461,-2.246,-2.2474,-2.2531,-2.248,-2.2501,-2.246,-2.2433,-2.2495,-2.2479,-2.2496,-2.2512,-2.2473,-2.2588,-2.2562,-2.2505,-2.242,-2.2561,-2.2612,-2.2632,-2.2348,-2.2346,-2.2343,-2.2341,0,0,-2.2618,-2.2582,-2.2603,-2.2601,-2.2583,-2.2611,-2.2664,-2.2679,-2.2699,-2.2701,-2.2744,-2.2785,-2.2731,-2.2738,-2.2697,-2.2741,-2.2872,-2.2678,-2.2677,-2.2716,-2.2999,-2.3043,-2.3068,-2.2835,-2.2839,-2.2842,-2.3,0,-2.2777,-2.2863,-2.281,-2.2906,-2.2939,-2.2857,-2.2902,-2.2897,-2.2873,-2.2899,-2.2872,-2.2903,-2.283,-2.2833,-2.2873,-2.2848,-2.2928,-2.2835,-2.2876,-2.2878,-2.2881,-2.3095,-2.3141,-2.3291,-2.3019,-2.3023,-2.3025,0,-2.2973,-2.2982,-2.308,-2.3055,-2.3067,-2.3109,-2.3119,-2.3144,-2.3136,-2.3115,-2.3122,-2.307,-2.3121,-2.3036,-2.3105,-2.3044,-2.3057,-2.3047,-2.3051,-2.3054,-2.2961,-2.3104,-2.3337,-2.3361,-2.3056,-2.3053,-2.3051,0,-2.3144,-2.318,-2.3244,-2.3245,-2.3217,-2.3248,-2.3239,-2.3226,-2.3239,-2.3248,-2.3255,-2.3271,-2.3279,-2.3293,-2.3247,-2.3189,-2.3323,-2.3234,-2.3308,-2.331,-2.3341,-2.334,-2.3581,-2.3348,-2.3348,-2.3347,-2.3347,0,-2.3327,-2.3391,-2.332,-2.3359,-2.3428,-2.3367,-2.3437,-2.3419,-2.3408,-2.3443,-2.3373,-2.3407,-2.3343,-2.3372,-2.3336,-2.3399,-2.3404,-2.3389,-2.3379,-2.3396,-2.3398,-2.3405,-2.3394,-2.3353,-2.3352,-2.3351,-2.335,0,-2.3531,-2.3486,-2.3549,-2.3517,-2.351,-2.3563,-2.3536,-2.3571,-2.3542,-2.3587,-2.3594,-2.3549,-2.3578,-2.3533,-2.3558,-2.3533,-2.3621,-2.3595,-2.3624,-2.3616,-2.3693,-2.3687,-2.3948,-2.3979,-2.3726,-2.3728,-2.3731,0,-2.3651,-2.3697,-2.367,-2.3687,-2.3681,-2.371,-2.3722,-2.3664,-2.368,-2.3674,-2.371,-2.3734,-2.3749,-2.38,-2.3771,-2.3789,-2.3763,-2.3853,-2.3766,-2.3781,-2.3766,-2.3764,-2.3769,-2.3872,-2.3875,-2.3877,-2.3879,0,-2.3869,-2.3844,-2.3863,-2.3876,-2.3891,-2.3898,-2.39,-2.3919,-2.3857,-2.3879,-2.3907,-2.3919,-2.3944,-2.3968,-2.3979,-2.397,-2.3916,-2.3907,-2.3925,-2.3944,-2.3959,-2.3952,-2.3674,-2.3902,-2.3899,-2.3898,-2.3897,-2.3896,-2.4035,-2.4073,-2.4059,-2.4083,-2.4077,-2.4081,-2.4112,-2.4086,-2.4108,-2.4123,-2.4087,-2.4125,-2.4115,-2.4124,-2.4121,-2.415,-2.4111,-2.4137,-2.4144,-2.4151,-2.4164,-2.3953,-2.4152,-2.4151,-2.415,-2.415,-2.4149,0,-2.425,-2.4237,-2.4259,-2.4263,-2.4283,-2.4227,-2.4226,-2.4246,-2.428,-2.4275,-2.4291,-2.4324,-2.4347,-2.4319,-2.4337,-2.4366,-2.4342,-2.4373,-2.4371,-2.437,-2.4198,-2.418,-2.4392,-2.4392,-2.4392,-2.4392,-2.4392,-2.4392,-2.4365,-2.4425,-2.4399,-2.4457,-2.4443,-2.4478,-2.4482,-2.4485,-2.4481,-2.452,-2.4539,-2.4519,-2.4505,-2.4521,-2.4541,-2.4531,-2.4542,-2.4583,-2.4565,-2.4405,-2.4382,-2.4359,-2.4342,-2.4585,-2.4585,-2.4735,-2.4736,-2.4737]},{"header":{"parameterUnit":"m.s-1","parameterCategory":1,"la1":30.2991,"la2":30.254,"lo1":-89.0895,"lo2":-89.0444,"dy":0.0017,"dx":0.0017,"nx":28,"ny":28,"refTime":"2025-08-07T09:00:00:Z","depth":0,"parameterNumber":3,"parameterNumberName":"V-component_of_WINDS"},"data":[0,0,0,0,0,0,0,0,0,0,0,0,0,0,0,0,0,0,0,0,0,0,0,0,0,0,0,0,0,0,0,0,0,0,0,0,0,0,0,0,0,0,0,0,0,0,0,0,0,0,0,0,0,0,0,0,0,0,-1.9642,-1.9642,0,-1.9632,-1.9632,-1.9632,-1.9606,-1.9605,-1.9604,-1.9604,-1.9593,-1.9593,-1.9593,0,0,0,0,0,0,0,0,0,0,0,0,0,-1.9638,-1.9638,-1.9642,-1.9642,-1.9642,-1.9632,-1.9632,-1.9632,-1.9606,-1.9605,-1.9604,-1.9604,-1.9593,-1.9593,-1.9593,0,0,0,0,0,0,0,0,0,0,0,0,0,-1.9635,-1.9638,-1.9642,-1.9628,-1.9627,-1.9632,-1.9632,-1.9632,-1.9606,-1.9605,-1.9604,-1.9603,-1.9593,-1.9593,-1.9593,-1.9612,0,0,-1.9594,-1.9594,0,0,0,0,0,0,0,0,-1.9635,-1.9635,-1.963,-1.9629,-1.9627,-1.9619,-1.9626,-1.9625,-1.9606,-1.9614,-1.9604,-1.9603,-1.9602,-1.9602,-1.9602,-1.9611,-1.9611,-1.9594,-1.9594,-1.9595,-1.9595,0,0,0,0,0,0,0,-1.9635,-1.9635,-1.9638,-1.963,-1.9628,-1.9621,-1.962,-1.9626,-1.9613,-1.9613,-1.9611,-1.961,-1.9601,-1.9601,-1.9601,-1.9611,-1.9594,-1.9595,-1.9595,-1.9595,-1.9634,-1.9635,0,0,0,0,0,0,-1.9638,-1.9636,-1.9639,-1.9638,-1.9629,-1.9622,-1.9621,-1.9623,-1.9613,-1.961,-1.9611,-1.9609,-1.9601,-1.9601,-1.9601,-1.9621,-1.9595,-1.9595,-1.9595,-1.9633,-1.9634,-1.9635,0,0,0,0,0,0,-1.9638,-1.9638,-1.9639,-1.9636,-1.9636,-1.9623,-1.9626,-1.9623,-1.9623,-1.9611,-1.9608,-1.9613,-1.96,-1.96,-1.9609,-1.962,-1.9595,-1.9595,-1.9632,-1.9633,-1.9634,-1.9662,0,0,0,0,0,0,-1.9638,-1.9639,-1.9646,-1.9637,-1.9636,-1.9648,-1.9626,-1.9623,-1.9624,-1.9621,-1.9613,-1.9611,-1.96,-1.9609,-1.9609,-1.962,-1.9596,-1.9631,-1.9632,-1.9634,-1.966,-1.9664,-1.9667,0,0,0,0,0,-1.9638,-1.9654,-1.9647,-1.9647,-1.9645,-1.9649,-1.9648,-1.9636,-1.9625,-1.9632,-1.9624,-1.9611,-1.9619,-1.961,-1.961,-1.9621,-1.963,-1.9632,-1.9634,-1.9658,-1.9663,-1.9667,0,0,0,0,0,0,-1.9665,-1.9653,-1.9644,-1.9658,-1.9655,-1.9644,-1.9653,-1.9642,-1.9641,-1.9639,-1.9623,-1.9621,-1.9632,-1.9628,-1.9618,-1.9638,-1.9622,-1.9624,-1.964,-1.9645,-1.9649,-1.9649,-1.9596,0,0,0,0,0,-1.9673,-1.9677,-1.9666,-1.9679,-1.9678,-1.9666,-1.9667,-1.9658,-1.9653,-1.9652,-1.9645,-1.9641,-1.9642,-1.9643,-1.9644,-1.9659,-1.9656,-1.9667,-1.967,-1.9673,-1.9675,-1.9681,-1.9685,-1.9641,-1.9641,-1.9641,0,0,-1.9689,-1.9682,-1.9686,-1.9685,-1.9681,-1.9685,-1.9665,-1.9671,-1.9673,-1.9653,-1.966,-1.9655,-1.9649,-1.9661,-1.9666,-1.9657,-1.9687,-1.9676,-1.9678,-1.9678,-1.9683,-1.9688,-1.9691,-1.9642,-1.9642,-1.9642,0,0,-1.9719,-1.9716,-1.9726,-1.9722,-1.9717,-1.9708,-1.9711,-1.9702,-1.9697,-1.9705,-1.9689,-1.9692,-1.9695,-1.9691,-1.969,-1.9718,-1.9706,-1.9719,-1.9738,-1.9744,-1.9747,-1.975,-1.9759,-1.9763,-1.9721,-1.9721,-1.9721,0,-1.9739,-1.9745,-1.9732,-1.9738,-1.9738,-1.9719,-1.9729,-1.9726,-1.9721,-1.9721,-1.9712,-1.9714,-1.971,-1.9719,-1.9726,-1.9726,-1.9727,-1.972,-1.9748,-1.9751,-1.9754,-1.9762,-1.9765,-1.9723,-1.9722,-1.9722,-1.9722,0,-1.977,-1.9774,-1.9783,-1.9778,-1.9779,-1.9787,-1.9774,-1.9776,-1.9766,-1.9758,-1.9766,-1.9759,-1.9757,-1.9759,-1.975,-1.9767,-1.9762,-1.9751,-1.9735,-1.976,-1.9767,-1.977,-1.9725,-1.9724,-1.9724,-1.9723,0,0,-1.9817,-1.9805,-1.9808,-1.9805,-1.9797,-1.98,-1.9807,-1.9805,-1.9807,-1.9804,-1.9808,-1.9811,-1.98,-1.9798,-1.9789,-1.9794,-1.9815,-1.9782,-1.9782,-1.9787,-1.9832,-1.984,-1.9844,-1.9807,-1.9808,-1.9808,-1.9832,0,-1.9845,-1.9856,-1.9844,-1.9857,-1.986,-1.9842,-1.9847,-1.9843,-1.9836,-1.9837,-1.9829,-1.9831,-1.9817,-1.9816,-1.982,-1.9812,-1.9824,-1.981,-1.981,-1.981,-1.9811,-1.9848,-1.9856,-1.9879,-1.9835,-1.9836,-1.9836,0,-1.9879,-1.9877,-1.989,-1.9881,-1.9882,-1.9887,-1.9884,-1.9886,-1.988,-1.9874,-1.9872,-1.986,-1.9865,-1.985,-1.9856,-1.9846,-1.9846,-1.9841,-1.9842,-1.9841,-1.9824,-1.9846,-1.9886,-1.9889,-1.9841,-1.984,-1.984,0,-1.991,-1.9912,-1.9919,-1.9918,-1.9907,-1.9911,-1.9906,-1.99,-1.9899,-1.9897,-1.9896,-1.9894,-1.9893,-1.9891,-1.9878,-1.9869,-1.9885,-1.987,-1.988,-1.988,-1.9883,-1.9883,-1.9923,-1.9885,-1.9885,-1.9885,-1.9885,0,-1.9942,-1.9951,-1.9933,-1.9938,-1.9946,-1.9932,-1.9941,-1.9935,-1.9929,-1.9931,-1.9916,-1.9919,-1.9903,-1.9903,-1.9894,-1.9899,-1.9899,-1.9894,-1.9891,-1.9894,-1.9895,-1.9893,-1.9891,-1.9886,-1.9886,-1.9885,-1.9885,0,-1.9978,-1.9967,-1.9974,-1.9963,-1.9961,-1.9968,-1.9958,-1.9961,-1.9953,-1.9956,-1.9956,-1.9943,-1.9943,-1.9931,-1.9928,-1.9921,-1.9931,-1.9925,-1.9932,-1.993,-1.9941,-1.994,-1.998,-1.9983,-1.9945,-1.9945,-1.9945,0,-1.9999,-2.0005,-1.9994,-1.9995,-1.9991,-1.9993,-1.9992,-1.9978,-1.9978,-1.9971,-1.9975,-1.9974,-1.9972,-1.9972,-1.9962,-1.9959,-1.9953,-1.9967,-1.9953,-1.9956,-1.9952,-1.9951,-1.9951,-1.997,-1.9971,-1.9971,-1.9971,0,-2.0036,-2.003,-2.0029,-2.0027,-2.0026,-2.0024,-2.002,-2.0021,-2.0006,-2.0006,-2.0006,-2.0004,-2.0001,-2.0,-1.9995,-1.999,-1.9978,-1.9976,-1.9978,-1.9981,-1.9985,-1.9982,-1.994,-1.9975,-1.9975,-1.9975,-1.9974,-1.9974,-2.0064,-2.0068,-2.0061,-2.0061,-2.0056,-2.0053,-2.0055,-2.0047,-2.0047,-2.0043,-2.0035,-2.0036,-2.0028,-2.0021,-2.0017,-2.0017,-2.0009,-2.0013,-2.0013,-2.0014,-2.0016,-1.9986,-2.0016,-2.0016,-2.0016,-2.0016,-2.0016,0,-2.0099,-2.0093,-2.0093,-2.0088,-2.0088,-2.0077,-2.0072,-2.0072,-2.0073,-2.0068,-2.0066,-2.0065,-2.0063,-2.0053,-2.0049,-2.0051,-2.0045,-2.005,-2.005,-2.0048,-2.0023,-2.0021,-2.0055,-2.0055,-2.0055,-2.0055,-2.0055,-2.0055,-2.0117,-2.0123,-2.0116,-2.0119,-2.0113,-2.0114,-2.0112,-2.0108,-2.0104,-2.0103,-2.0101,-2.0095,-2.0087,-2.0083,-2.008,-2.0077,-2.0076,-2.0083,-2.0078,-2.0054,-2.005,-2.0047,-2.0045,-2.0083,-2.0083,-2.0103,-2.0103,-2.0103]}]]